Weather History for Franklin, VA

Change the Weather History Date:

Monday, December 10, 2012

  Actual Average (KSFQ) Record (KSFQ)
Temperature  
Mean Temperature 66 °F -  
Max Temperature 73 °F 55 °F 78 °F (2007)
Min Temperature 59 °F 34 °F 19 °F (1960)
Cooling Degree Days 1    
Growing Degree Days 16 (Base 50)    
Moisture  
Dew Point 62 °F    
Average Humidity 88    
Maximum Humidity 100    
Minimum Humidity 68    
Precipitation  
Precipitation 0.00 in - - ()
Sea Level Pressure  
Sea Level Pressure 29.80 in    
Wind  
Wind Speed 6 mph (SSW)    
Max Wind Speed 13 mph    
Max Gust Speed 21 mph    
Visibility 9 miles    
Events      
Averages and records for this station are not official NWS values.
T = Trace of Precipitation, MM = Missing Value Source: NWS Daily Summary

Daily Weather History Graph

Daily Weather History Graph

Search for Another Location

Airport:

Trip Planner

Search our weather history database for the weather conditions in past years. The results will help you decide how hot, cold, wet, or windy it might be!

Date:

Astronomy

Dec. 10, 2012 Rise Set
Actual Time 7:09 AM EST 4:51 PM EST
Civil Twilight 6:40 AM EST 5:20 PM EST
Nautical Twilight 6:08 AM EST 5:52 PM EST
Astronomical Twilight 5:36 AM EST 6:24 PM EST
Moon 3:53 AM EST (12/10) 2:37 PM EST (12/10)
Length of Visible Light 10h 39m
Length of Day
9h 42m
Waning Crescent, 10% of the Moon is Illuminated
Dec 10
Waning Crescent
Dec 13
New
Dec 20
First Quarter
Dec 28
Full
Jan 4
Last Quarter

Hourly Weather History & Observations

Time (EST) Temp. Dew Point Humidity Pressure Visibility Wind Dir Wind Speed Gust Speed Precip Events Conditions
12:15 AM 60.8 °F 60.8 °F 100% 30.00 in 10.0 mi South 6.9 mph - N/A   Scattered Clouds
12:35 AM 60.8 °F 60.8 °F 100% 29.99 in 10.0 mi South 6.9 mph - N/A   Scattered Clouds
12:55 AM 60.8 °F 60.8 °F 100% 29.99 in 10.0 mi South 4.6 mph - N/A   Scattered Clouds
1:15 AM 60.8 °F 60.8 °F 100% 29.97 in 10.0 mi South 5.8 mph - N/A   Scattered Clouds
1:35 AM 60.8 °F 60.8 °F 100% 29.97 in 10.0 mi South 5.8 mph - N/A   Clear
1:55 AM 60.8 °F 60.8 °F 100% 29.96 in 10.0 mi South 4.6 mph - N/A   Scattered Clouds
2:15 AM 59.0 °F 59.0 °F 100% 29.96 in 7.0 mi South 4.6 mph - N/A   Clear
2:35 AM 59.0 °F 59.0 °F 100% 29.95 in 7.0 mi South 3.5 mph - N/A   Clear
2:55 AM 60.8 °F 60.8 °F 100% 29.94 in 7.0 mi Calm Calm - N/A   Scattered Clouds
3:15 AM 59.0 °F 59.0 °F 100% 29.94 in 5.0 mi South 3.5 mph - N/A   Mostly Cloudy
3:55 AM 60.8 °F 60.8 °F 100% 29.91 in 7.0 mi South 4.6 mph - N/A   Scattered Clouds
4:15 AM 60.8 °F 60.8 °F 100% 29.90 in 7.0 mi South 3.5 mph - N/A   Mostly Cloudy
4:35 AM 60.8 °F 60.8 °F 100% 29.90 in 7.0 mi South 4.6 mph - N/A   Mostly Cloudy
4:55 AM 62.6 °F 62.6 °F 100% 29.89 in 7.0 mi South 5.8 mph - N/A   Overcast
5:15 AM 62.6 °F 62.6 °F 100% 29.88 in 10.0 mi South 4.6 mph - N/A   Overcast
5:35 AM 62.6 °F 62.6 °F 100% 29.88 in 7.0 mi South 4.6 mph - N/A   Overcast
5:55 AM 62.6 °F 62.6 °F 100% 29.88 in 7.0 mi South 5.8 mph - N/A   Overcast
6:15 AM 62.6 °F 62.6 °F 100% 29.88 in 7.0 mi South 6.9 mph - N/A   Overcast
6:35 AM 64.4 °F 64.4 °F 100% 29.87 in 7.0 mi South 4.6 mph - N/A   Overcast
7:15 AM 64.4 °F 64.4 °F 100% 29.86 in 7.0 mi South 4.6 mph - N/A   Overcast
7:35 AM 64.4 °F 64.4 °F 100% 29.85 in 7.0 mi South 3.5 mph - N/A   Overcast
7:55 AM 64.4 °F 64.4 °F 100% 29.85 in 7.0 mi South 4.6 mph - N/A   Overcast
8:15 AM 64.4 °F 64.4 °F 100% 29.86 in 7.0 mi Calm Calm - N/A   Overcast
8:35 AM 64.4 °F 64.4 °F 100% 29.84 in 5.0 mi Calm Calm - N/A   Overcast
8:55 AM 64.4 °F 64.4 °F 100% 29.84 in 7.0 mi South 4.6 mph - N/A   Overcast
9:15 AM 64.4 °F 64.4 °F 100% 29.84 in 10.0 mi South 4.6 mph - N/A   Overcast
9:35 AM 66.2 °F 66.2 °F 100% 29.84 in 10.0 mi SSW 6.9 mph - N/A   Overcast
9:55 AM 66.2 °F 66.2 °F 100% 29.83 in 10.0 mi South 4.6 mph - N/A   Overcast
10:15 AM 66.2 °F 66.2 °F 100% 29.83 in 10.0 mi SSW 5.8 mph - N/A   Overcast
10:35 AM 66.2 °F 66.2 °F 100% 29.82 in 10.0 mi South 8.1 mph - N/A   Overcast
10:55 AM 68.0 °F 66.2 °F 94% 29.80 in 10.0 mi South 6.9 mph - N/A   Overcast
11:15 AM 68.0 °F 66.2 °F 94% 29.79 in 10.0 mi SSW 5.8 mph - N/A   Overcast
11:35 AM 68.0 °F 66.2 °F 94% 29.78 in 10.0 mi SW 8.1 mph - N/A   Overcast
11:55 AM 68.0 °F 66.2 °F 94% 29.77 in 10.0 mi WSW 6.9 mph - N/A   Overcast
12:15 PM 69.8 °F 66.2 °F 88% 29.76 in 10.0 mi SW 5.8 mph - N/A   Overcast
12:35 PM 69.8 °F 66.2 °F 88% 29.75 in 10.0 mi SW 6.9 mph - N/A   Overcast
1:15 PM 71.6 °F 66.2 °F 83% 29.73 in 10.0 mi SW 8.1 mph - N/A   Mostly Cloudy
1:35 PM 69.8 °F 66.2 °F 88% 29.71 in 10.0 mi SW 11.5 mph - N/A   Mostly Cloudy
1:55 PM 71.6 °F 64.4 °F 78% 29.71 in 10.0 mi SW 9.2 mph 16.1 mph N/A   Mostly Cloudy
2:15 PM 71.6 °F 64.4 °F 78% 29.70 in 10.0 mi SW 11.5 mph - N/A   Scattered Clouds
2:35 PM 73.4 °F 62.6 °F 69% 29.70 in 10.0 mi SW 10.4 mph 16.1 mph N/A   Scattered Clouds
2:55 PM 73.4 °F 62.6 °F 69% 29.69 in 10.0 mi SW 11.5 mph 19.6 mph N/A   Scattered Clouds
3:15 PM 73.4 °F 62.6 °F 69% 29.69 in 10.0 mi SW 9.2 mph 16.1 mph N/A   Clear
3:35 PM 71.6 °F 62.6 °F 73% 29.69 in 10.0 mi SW 12.7 mph 20.7 mph N/A   Clear
3:55 PM 71.6 °F 62.6 °F 73% 29.69 in 10.0 mi SW 8.1 mph - N/A   Clear
4:15 PM 71.6 °F 62.6 °F 73% 29.70 in 10.0 mi SW 8.1 mph - N/A   Clear
4:35 PM 71.6 °F 62.6 °F 73% 29.71 in 10.0 mi SW 5.8 mph - N/A   Scattered Clouds
4:55 PM 69.8 °F 62.6 °F 78% 29.71 in 10.0 mi SSW 5.8 mph - N/A   Overcast
5:15 PM 69.8 °F 62.6 °F 78% 29.71 in 10.0 mi SSW 6.9 mph - N/A   Overcast
5:35 PM 69.8 °F 60.8 °F 73% 29.72 in 10.0 mi SSW 5.8 mph - N/A   Overcast
5:55 PM 69.8 °F 60.8 °F 73% 29.70 in 10.0 mi South 10.4 mph - N/A   Mostly Cloudy
6:15 PM 69.8 °F 59.0 °F 68% 29.70 in 10.0 mi SSW 9.2 mph - N/A   Clear
6:35 PM 69.8 °F 59.0 °F 68% 29.71 in 10.0 mi SSW 9.2 mph - N/A   Clear
6:55 PM 68.0 °F 59.0 °F 73% 29.72 in 10.0 mi SSW 6.9 mph - N/A   Clear
7:15 PM 66.2 °F 59.0 °F 78% 29.71 in 10.0 mi South 6.9 mph - N/A   Clear
7:35 PM 66.2 °F 59.0 °F 78% 29.71 in 10.0 mi SSW 6.9 mph - N/A   Clear
7:55 PM 66.2 °F 59.0 °F 78% 29.72 in 10.0 mi SSW 6.9 mph - N/A   Clear
8:15 PM 66.2 °F 57.2 °F 73% 29.71 in 10.0 mi SSW 9.2 mph - N/A   Scattered Clouds
8:35 PM 66.2 °F 57.2 °F 73% 29.71 in 10.0 mi SSW 8.1 mph - N/A   Scattered Clouds
8:55 PM 66.2 °F 57.2 °F 73% 29.70 in 10.0 mi SSW 9.2 mph - N/A   Clear
9:15 PM 66.2 °F 57.2 °F 73% 29.70 in 10.0 mi South 10.4 mph - N/A   Scattered Clouds
9:55 PM 66.2 °F 57.2 °F 73% 29.68 in 10.0 mi South 9.2 mph 17.3 mph N/A   Clear
10:15 PM 66.2 °F 57.2 °F 73% 29.68 in 10.0 mi SSW 10.4 mph 19.6 mph N/A   Clear
10:35 PM 66.2 °F 59.0 °F 78% 29.69 in 10.0 mi South 11.5 mph 19.6 mph N/A   Clear
10:55 PM 66.2 °F 59.0 °F 78% 29.69 in 10.0 mi SSW 10.4 mph 16.1 mph N/A   Clear
11:15 PM 66.2 °F 60.8 °F 83% 29.70 in 10.0 mi SSW 11.5 mph - N/A   Clear
11:35 PM 66.2 °F 60.8 °F 83% 29.71 in 10.0 mi SSW 11.5 mph 17.3 mph N/A   Clear
11:55 PM 66.2 °F 60.8 °F 83% 29.71 in 10.0 mi SSW 11.5 mph 16.1 mph N/A   Clear